Zurück zum Katalog

STARLINK-6223

AktivKommunikationVLEO
NORAD 57057·PAYLOAD·🇺🇸 United States

Gestartet Jun 22, 2023 von Vandenberg Space Force Base

Loading…

Nächste Überflüge (nächste 24 Stunden)

TLE

AktuellSource: CelesTrak SupGP

Epoche: Sep 14, 2026, 21:03 UTC

1 57057C 23088K   26257.87756944 -.00012634  00000+0 -45775-3 0  2572
2 57057  42.9995 121.9805 0001199 256.6132 291.9429 15.27574917    10

Verfolge STARLINK-6223 in Echtzeit mit AllMySat

Download on the App Store